Tracking 35274 objects as of 10-Sep-2026
HD Live streaming from Space Station
objects crossing your sky now

SL-12 R/B(AUX MOTOR)


SL-12 R/B(AUX MOTOR) is no longer on orbit


NORAD ID: 23015
Int'l Code: 1994-012F
Launch date: February 18, 1994
Source: Commonwealth of Independent States (former USSR) (CIS)
Launch site: TYURATAM MISSILE AND SPACE COMPLEX (TTMTR)
Decay date: 1995-08-25

Note: This is a ROCKET BODY
Your satellite tracking list
Your tracking list is empty




NASA's NSSDC Master Catalog

Two Line Element Set (TLE):
1 23015U 94012  F 95237.44704297  .69710427 +80947-5 +82265-3 0  9995
2 23015 046.3845 142.4189 0242046 127.1430 240.4087 16.02958604026024
Source of the keplerian elements: AFSPC